Location: Allonne
(49.4086°N, 2.1143°E)
Time: 07:35:10
(UTC+00:00)

Lacrosse 5 rocket - Visible Passes

Search period start: 24 September 2023 00:00
Search period end: 04 October 2023 00:00
Orbit: 449 x 604 km, 57.0° (Epoch: 23 September)

Date Brightness Start Highest point End Pass type
(mag) Time Alt. Az. Time Alt. Az. Time Alt. Az.
24 Sep 4.0 04:36:19 10° SSE 04:38:51 16° SE 04:41:21 10° E visible
25 Sep 3.7 04:23:07 10° S 04:25:58 18° SE 04:28:44 10° E visible
26 Sep 3.5 04:09:57 10° S 04:13:03 21° SE 04:16:03 10° E visible
27 Sep 3.2 03:57:06 11° S 04:00:07 24° SE 04:03:18 10° ENE visible
28 Sep 3.0 03:45:14 19° S 03:47:10 27° SE 03:50:31 10° ENE visible
29 Sep 2.7 03:33:13 27° SSE 03:34:12 30° SE 03:37:41 10° ENE visible
29 Sep 1.4 05:08:44 10° WSW 05:12:43 57° NNW 05:16:30 10° NE visible
30 Sep 2.4 03:21:06 34° SE 03:21:13 34° SE 03:24:49 10° ENE visible
30 Sep 1.5 04:56:17 13° WSW 04:59:47 52° NNW 05:03:33 10° NE visible
01 Oct 2.5 03:08:52 36° ESE 03:08:52 36° ESE 03:11:55 10° ENE visible
01 Oct 1.7 04:44:03 18° W 04:46:50 48° NNW 04:50:35 10° NE visible
02 Oct 2.9 02:56:34 31° E 02:56:34 31° E 02:58:58 10° ENE visible
02 Oct 1.8 04:31:44 23° W 04:33:53 45° NNW 04:37:36 10° NE visible
03 Oct 3.4 02:44:11 25° ENE 02:44:11 25° ENE 02:45:59 10° ENE visible
03 Oct 1.9 04:19:21 28° WNW 04:20:53 42° NNW 04:24:35 10° NE visible
